World > North America > United States > South Carolina > Red Hill  

Red Hill, SC Hourly Weather Updates

Feedback E-mail the Weather

Quick Clicks

Red Hill, SC Weather Maps

°F °C°F °C
Red Hill Weather Map
UTC Time: 4/23/2024, 02:24
Your Time:

Red Hill, SC Regional Weather

Expires:202404230300;;215107
ASUS42 KCAE 230210
RWRCAE
REGIONAL WEATHER ROUNDUP
NATIONAL WEATHER SERVICE COLUMBIA SC
1000 PM EDT MON APR 22 2024

NOTE: "FAIR" INDICATES FEW OR NO CLOUDS BELOW 12,000 FEET WITH NO
SIGNIFICANT WEATHER AND/OR OBSTRUCTIONS TO VISIBILITY.

NOT ALL STATIONS ARE QUALITY CONTROLLED BY THE NATIONAL 
WEATHER SERVICE. USE DATA WITH CAUTION...ESPECIALLY 
DEWPOINT OBSERVATIONS.


SCZ001>059-115-116-135>137-GAZ040-063>065-077-230300-
...UPSTATE SOUTH CAROLINA...
  
CITY           SKY/WX    TMP DP  RH WIND       PRES   REMARKS
ANDERSON       CLEAR     54  41  61 SE5       30.14R                  
LIBERTY        CLEAR     47  46  95 CALM      30.13S                  
SPARTANBURG    CLEAR     50  43  76 CALM      30.15R                  
CLEMSON        CLEAR     54  45  71 CALM      30.14R                  
GREENVILLE     CLEAR     57  40  52 CALM      30.15R                  
GREENWOOD      CLEAR     49  44  83 CALM      30.17R                  
GREER          CLEAR     55  37  50 S6        30.15R                  
ROCK HILL      CLEAR     45  42  89 CALM      30.16R                  
CHESTER        CLEAR     46  41  81 CALM      30.17R                  
LAURENS        CLEAR     50  45  81 SE3       30.16R                  


...CENTRAL SOUTH CAROLINA...
  
CITY           SKY/WX    TMP DP  RH WIND       PRES   REMARKS
COLUMBIA APT   CLEAR     50  44  80 SW3       30.16R                  
COLUMBIA OWENS CLEAR     50  43  77 CALM      30.18R                  
MCENTIRE ANGB  CLEAR     45  42  87 CALM      30.15R                  
ORANGEBURG     CLEAR     53  42  66 CALM      30.17R                  
NEWBERRY       CLEAR     50  46  87 CALM      30.19R                  
AIKEN          CLEAR     49  44  82 CALM      30.18R                  
BARNWELL       CLEAR     50  45  81 CALM      30.17R                  
MANNING        CLEAR     46  41  81 CALM      30.18R                  
CAMDEN         CLEAR     48  41  76 CALM      30.18R                  
LANCASTER      CLEAR     46  43  87 CALM      30.17R                  
WINNSBORO      CLEAR     48  41  76 CALM      30.17R                  


...EASTERN AND COASTAL SOUTH CAROLINA...
  
CITY           SKY/WX    TMP DP  RH WIND       PRES   REMARKS
MYRTLE BEACH   CLEAR     53  42  66 NW3       30.17R                  
N MYRTLE BCH   CLEAR     48  40  73 E6        30.16R                  
CONWAY         CLEAR     45  45 100 CALM      30.17R                  
MARION         CLEAR     46  46 100 CALM      30.17R                  
FLORENCE       CLEAR     49  42  77 CALM      30.17R                  
DARLINGTON     CLEAR     48  46  93 CALM      30.17R                  
CHARLESTON APT CLEAR     55  41  59 N7        30.17R                  
MOUNT PLEASANT CLEAR     55  45  67 CALM      30.17R                  
WALTERBORO     CLEAR     46  45  93 CALM      30.18R                  
BEAUFORT       CLEAR     60  45  57 N7        30.17R                  
HILTON HEAD    CLEAR     61  41  48 NE9G17    30.17R                  


...EASTERN GEORGIA...
  
CITY           SKY/WX    TMP DP  RH WIND       PRES   REMARKS
AUGUSTA BUSH F CLEAR     48  44  86 CALM      30.16R                  
AUGUSTA DANIEL CLEAR     57  40  52 CALM      30.17R                  
THOMSON        CLEAR     50  48  93 CALM      30.17R                  
WASHINGTON     CLEAR     49  47  92 SE5       30.15S                  
CLAXTON        CLEAR     52  49  90 CALM      30.18R                  
STATESBORO     CLEAR     50  45  81 CALM      30.18R                  
SAVANNAH       CLEAR     54  47  77 N3        30.17R                  


...SOUTHERN NORTH CAROLINA...
  
CITY           SKY/WX    TMP DP  RH WIND       PRES   REMARKS
CHARLOTTE      CLEAR     54  35  48 S3        30.15R                  
MONROE         CLEAR     46  41  82 CALM      30.15R                  
WADESBORO      CLEAR     46  44  92 CALM      30.16R                  
ROCKINGHAM     CLEAR     47  42  82 CALM      30.16R                  
RUTHERFORDTON  CLEAR     52  37  58 NE3       30.16R                  
ASHEVILLE      CLEAR     51  27  39 N7        30.16R                  

$$
  

SKY/WX - Weather  TMP - Temperature  DP - Dew Point  RH - Humidity
WIND - Wind Direction/Speed PRES - Barometric Pressure VSB - Visibility
WCI - Wind Chill Index E13G22 Wind - East Wind 13 mph/Gusts of 22 mph

Trending Headlines

Trending Entertainment Headlines

Red Hill Radar Loop

Use the map search tool if you want to place a location marker on the radar map...

Red Hill Quick Facts

National Two Day Weather Forecast


E-mail the Red Hill Weather Forecast

Voice your opinion or tell us about page issues...